Date,TemperatureHighF,TemperatureAvgF,TemperatureLowF,DewpointHighF,DewpointAvgF,DewpointLowF,HumidityHigh,HumidityAvg,HumidityLow,PressureMaxIn,PressureMinIn,WindSpeedMaxMPH,WindSpeedAvgMPH,GustSpeedMaxMPH,PrecipitationSumIn
2014-1-1,12.1,6.0,0.4,4.4,-1.3,-8.3,77,71,66,30.37,30.28,12,4,12,0.00
2014-1-2,9.5,5.5,-5.2,4.3,-0.4,-11.2,82,76,70,30.41,30.24,12,4,12,0.00
2014-1-3,16.9,4.6,-12.2,12.1,-1.6,-17.4,81,75,64,30.41,29.80,13,3,13,0.00
2014-1-4,31.1,24.1,16.2,26.8,18.3,8.8,87,79,73,30.09,29.71,10,5,16,0.00
2014-1-5,16.0,6.2,-6.8,9.2,-2.2,-15.2,75,68,59,30.20,30.04,18,6,18,0.00
2014-1-6,-6.8,-13.2,-16.9,-14.1,-20.6,-25.2,77,69,62,30.16,30.04,24,10,24,0.00
2014-1-7,0.2,-8.2,-16.2,-8.1,-15.0,-22.5,76,72,65,30.32,30.13,12,4,12,0.00
2014-1-8,6.1,-2.9,-9.7,-3.6,-9.8,-15.3,79,72,63,30.52,30.29,8,1,9,0.00
2014-1-9,24.8,9.5,-13.0,19.0,3.3,-18.7,85,76,63,30.54,30.17,6,1,6,0.00
2014-1-10,34.9,29.6,22.9,33.0,26.6,19.0,93,89,84,30.17,29.59,8,2,8,0.00
2014-1-11,36.0,32.1,28.6,34.1,29.2,24.8,95,89,84,29.79,29.47,17,6,17,0.00
2014-1-12,41.0,32.8,25.4,32.2,28.0,22.8,91,83,67,29.83,29.61,13,4,13,0.00
2014-1-13,40.9,34.0,23.2,35.4,29.6,18.1,89,84,75,29.79,29.59,14,3,14,0.00
2014-1-14,34.9,26.3,16.7,31.7,22.7,12.8,91,86,78,29.92,29.56,22,5,22,0.00
2014-1-15,17.6,13.4,9.0,12.9,8.5,3.8,86,81,72,30.09,29.74,14,4,14,0.00
2014-1-16,34.9,24.7,12.8,29.3,20.0,7.5,88,82,73,29.74,29.48,16,4,16,0.00
2014-1-17,21.6,14.4,5.4,16.7,9.7,0.5,84,81,78,29.97,29.73,12,4,15,0.00
2014-1-18,22.7,13.4,5.0,14.9,8.4,0.9,85,80,67,29.95,29.83,8,1,9,0.00
2014-1-19,31.9,23.7,6.5,25.5,18.6,2.6,88,81,72,29.85,29.54,15,3,15,0.00
2014-1-20,29.7,16.3,4.3,25.6,10.5,-4.8,90,78,59,30.24,29.67,20,5,20,0.00
2014-1-21,4.3,-1.0,-6.1,-4.3,-8.1,-12.3,77,71,66,30.36,30.18,15,3,15,0.00
2014-1-22,12.6,3.4,-3.1,6.5,-3.5,-10.3,80,73,67,30.18,29.90,15,5,17,0.00
2014-1-23,5.9,-0.2,-6.3,-2.4,-7.1,-13.5,79,73,66,30.56,30.17,22,6,22,0.00
2014-1-24,27.2,11.3,-9.2,24.8,4.8,-15.4,91,75,65,30.44,29.43,17,6,17,0.00
2014-1-25,28.4,11.4,2.2,26.3,1.3,-7.6,92,64,54,29.87,29.42,26,7,26,0.00
2014-1-26,20.9,11.7,4.0,16.8,5.7,-3.9,86,77,67,29.81,29.39,27,4,27,0.00
2014-1-27,3.6,-6.0,-12.1,-1.0,-13.8,-19.6,81,69,59,30.39,29.81,20,9,20,0.00
2014-1-28,0.5,-6.9,-15.1,-8.3,-14.3,-21.3,76,70,63,30.38,30.15,12,5,12,0.00
2014-1-29,21.1,5.9,-4.0,11.8,-2.2,-10.3,74,69,58,30.16,29.90,13,5,13,0.00
2014-1-30,29.2,24.2,15.5,25.8,17.4,7.8,88,75,63,29.98,29.61,16,5,16,0.00
2014-1-31,15.3,10.0,3.2,8.2,1.9,-2.2,80,70,64,30.18,29.96,11,2,11,0.00